Regional Weather Roundup
Issued by NWS

Home | Current Version | Previous Version | Text Only | Print | Product List | Glossary Off
Versions: 1 2 3 4 5 6 7 8 9 10 11 12 13 14 15 16 17 18 19 20 21 22 23 24 25 26 27 28 29 30 31 32 33 34 35 36 37 38 39 40 41 42 43 44 45 46 47 48 49 50

424
ASUS43 KIND 280909
RWRIN

WEATHER ROUNDUP FOR INDIANA
NATIONAL WEATHER SERVICE INDIANAPOLIS IN
500 AM EDT FRI JUL 28 2017

NOTE: "FAIR" INDICATES FEW OR NO CLOUDS BELOW 12,000 FEET WITH NO
SIGNIFICANT WEATHER AND/OR OBSTRUCTIONS TO VISIBILITY.

* - STATION DOES NOT REPORT WEATHER SUCH AS PRECIPITATION OR FOG.

+ - STATION NOT QUALITY CONTROLLED BY THE NATIONAL WEATHER SERVICE.
    USE DATA WITH CAUTION...ESPECIALLY DEWPOINT AND RELATIVE
    HUMIDITY OBSERVATIONS.

INZ001>003-010>013-019-020-281000-
NORTHWEST INDIANA

CITY           SKY/WX    TMP DP  RH WIND       PRES   REMARKS
GARY /AIRPORT/ CLEAR     73  66  78 NE10      29.92S
KNOX *+        MOCLDY    68  64  88 N8        29.90R
LA PORTE +     RAIN      69  66  90 NE8       29.93R
MICHIGAN CITY+ CLEAR     66  64  94 E3        29.92S
MONTICELLO +   MOCLDY    70  68  95 NE7       29.87S
RENSSELAER +   MOCLDY    70  64  83 N7        29.89S
VALPARAISO     LGT RAIN  70  67  90 E6        29.91S FOG

$$

LMZ046-743>745-281000-
SOUTHERN LAKE MICHIGAN

STATION/POSITION TIME  TEMP    WIND        PRES    WAVE
                       AIR SEA DIR/SP/G            HT
                 (UTC) (F)     (DEG/KT/KT) (MB)    (FT)
BURNS HARBOR     0840   73      50/ 15/ 18 1013.2S
MICHIGAN CITY    0840   71      50/ 14/ 16   N/A
5NW MICH CITY    0900   72 74   70/ 12/ 16   N/A     4

$$

INZ004-005-014>016-021>024-281000-
NORTH CENTRAL INDIANA

CITY           SKY/WX    TMP DP  RH WIND       PRES   REMARKS
GOSHEN         CLOUDY    69  60  73 NE6       29.91S
LOGANSPORT +   CLOUDY    70  70 100 NE5       29.88S FOG
PERU/GRISSOM   PTCLDY    72  72 100 NE8       29.86F
ROCHESTER +    CLEAR     72  70  94 E6        29.89F FOG
SOUTH BEND     HVY RAIN  65  63  93 NE8       29.94R FOG
WARSAW +       CLEAR     68  66  94 E6        29.91R

$$

INZ006>009-017-018-025>027-281000-
NORTHEAST INDIANA

CITY           SKY/WX    TMP DP  RH WIND       PRES   REMARKS
AUBURN +       CLEAR     64  61  88 NE3       29.92S
FORT WAYNE     MOCLDY    69  63  81 E12       29.90S
HUNTINGTON +   CLOUDY    69  67  96 E5        29.89F FOG
KENDALLVILLE + MOCLDY    66  63  90 E5        29.93S

$$

INZ028-029-035-036-043>045-051>053-281000-
WEST CENTRAL INDIANA

CITY           SKY/WX    TMP DP  RH WIND       PRES   REMARKS
GREENCASTLE +  CLOUDY    70  68  94 N6        29.86S
LAFAYETTE      PTCLDY    68  67  96 CALM      29.86S
TERRE HAUTE    PTCLDY    70  67  90 N6        29.84F

$$

INZ030>032-037>040-046>048-054>057-064-065-281000-
CENTRAL INDIANA

CITY           SKY/WX    TMP DP  RH WIND       PRES   REMARKS
CP ATTERBURY + CLOUDY    70  70 100 CALM      29.84S
FRANKFORT +    PTCLDY    71  70  95 NE3       29.88F FOG
GREENWOOD *+   CLOUDY   N/A N/A N/A NE5       29.85S
INDIANAPOLIS   CLOUDY    73  72  96 N8        29.83F FOG
-EAGLE CREEK   CLOUDY    73  71  93 N5        29.84S FOG
KOKOMO +       MOCLDY    71  70  96 NE8       29.88F FOG
MARION +       CLOUDY    70  68  94 E9        29.88F FOG
MT COMFORT *+  CLOUDY    70  70 100 N6        29.85F VSB 3/4
SHELBYVILLE    CLOUDY    74  71  91 NE3       29.83S FOG
ZIONSVILLE +   CLOUDY    70  70  99 NE7       29.86S FOG

$$

INZ033-034-041-042-049-050-058-059-281000-
EAST CENTRAL INDIANA

CITY           SKY/WX    TMP DP  RH WIND       PRES   REMARKS
MUNCIE         CLOUDY    73  70  90 NE9       29.86F FOG
RICHMOND +     CLOUDY    70  70 100 E6        29.87S FOG

$$

INZ060-061-067>069-081>083-085>088-281000-
SOUTHWEST INDIANA

CITY           SKY/WX    TMP DP  RH WIND       PRES   REMARKS
EVANSVILLE     CLOUDY    75  73  93 W7        29.82F
HUNTINGBURG *+ CLOUDY    75  74  96 W5        29.82S

$$

INZ062-063-066-070>080-084-089>092-281000-
SOUTH CENTRAL AND SOUTHEAST INDIANA

CITY           SKY/WX    TMP DP  RH WIND       PRES   REMARKS
BEDFORD +      CLOUDY    73  70  88 CALM      29.81F
BLOOMINGTON    CLOUDY    74  71  91 NE5       29.82F
MADISON *+     CLOUDY    73  72  94 CALM      29.85F
NORTH VERNON + DRIZZLE   72  72 100 CALM      29.84F
SEYMOUR +      LGT RAIN  75  75 100 CALM      29.82F

$$





USA.gov is the U.S. government's official web portal to all federal, state and local government web resources and services.